Location: Newark
(32.9900°N, 111.5400°W)
Time: 23:02:36
(UTC+00:00)

Envisat - Pass Details

Date: 17 November 2019
Orbit: 764 x 766 km, 98.1° (Epoch: 08 December)

Event Time Altitude Azimuth Distance (km) Brightness Sun altitude
Rises 01:43:56 0° 173° (S) 3,216 6.3 -16.8°
Reaches altitude 10° 01:46:14 10° 176° (S) 2,294 5.6 -17.3°
Maximum altitude 01:51:16 67° 259° (WSW) 828 3.3 -18.4°
Drops below altitude 10° 01:56:19 10° 342° (NNW) 2,306 5.6 -19.4°
Sets 01:58:39 0° 345° (NNW) 3,236 6.3 -19.9°
